Time,TemperatureF,DewpointF,PressureIn,WindDirection,WindDirectionDegrees,WindSpeedMPH,WindSpeedGustMPH,Humidity,HourlyPrecipIn,Conditions,Clouds,dailyrainin,SoftwareType,DateUTC
2013-03-03 00:00:00,29.1,16.6,29.63,NW,320,3.5,3.5,59,0.00,OVC,,0.00,WeatherDisplay:10.37,2013-03-03 05:00:00,
2013-03-03 00:05:00,29.1,16.6,29.63,NNW,340,3.5,3.5,59,0.00,OVC,,0.00,WeatherDisplay:10.37,2013-03-03 05:05:00,
2013-03-03 00:10:00,29.1,16.6,29.63,NNW,340,3.5,3.5,59,0.00,OVC,,0.00,WeatherDisplay:10.37,2013-03-03 05:10:00,
2013-03-03 00:15:00,29.1,16.6,29.63,NNW,340,3.5,3.5,59,0.00,OVC,,0.00,WeatherDisplay:10.37,2013-03-03 05:15:00,
2013-03-03 00:20:00,28.9,16.4,29.63,NNW,340,3.5,3.5,59,0.00,OVC,,0.00,WeatherDisplay:10.37,2013-03-03 05:20:00,
2013-03-03 00:25:00,28.9,16.4,29.63,NNW,340,0.0,0.0,59,0.00,OVC,,0.00,WeatherDisplay:10.37,2013-03-03 05:25:00,
2013-03-03 00:30:00,28.8,16.2,29.63,NNW,340,0.0,0.0,59,0.00,OVC,,0.00,WeatherDisplay:10.37,2013-03-03 05:30:00,
2013-03-03 00:35:00,28.6,16.1,29.63,NNW,340,0.0,0.0,59,0.00,OVC,,0.00,WeatherDisplay:10.37,2013-03-03 05:35:00,
2013-03-03 00:40:00,28.8,16.6,29.62,NNW,340,0.0,0.0,60,0.00,OVC,,0.00,WeatherDisplay:10.37,2013-03-03 05:40:00,
2013-03-03 00:45:00,28.6,16.4,29.63,NNW,340,0.0,0.0,60,0.00,OVC,,0.00,WeatherDisplay:10.37,2013-03-03 05:45:00,
2013-03-03 00:50:00,28.6,16.4,29.63,NNW,340,0.0,0.0,60,0.00,OVC,,0.00,WeatherDisplay:10.37,2013-03-03 05:50:00,
2013-03-03 00:55:00,28.6,16.4,29.63,NNW,340,0.0,0.0,60,0.00,OVC,,0.00,WeatherDisplay:10.37,2013-03-03 05:55:00,
2013-03-03 01:00:00,28.6,16.8,29.63,NNW,340,0.0,0.0,61,0.00,OVC,,0.00,WeatherDisplay:10.37,2013-03-03 06:00:00,
2013-03-03 01:05:00,28.2,16.5,29.63,North,350,3.5,3.5,61,0.00,OVC,,0.00,WeatherDisplay:10.37,2013-03-03 06:05:00,
2013-03-03 01:10:00,28.2,16.9,29.63,North,350,3.5,3.5,62,0.00,OVC,,0.00,WeatherDisplay:10.37,2013-03-03 06:10:00,
2013-03-03 01:15:00,28.0,16.7,29.63,North,350,3.5,3.5,62,0.00,OVC,,0.00,WeatherDisplay:10.37,2013-03-03 06:15:00,
2013-03-03 01:20:00,28.0,16.7,29.63,North,350,3.5,3.5,62,0.00,OVC,,0.00,WeatherDisplay:10.37,2013-03-03 06:20:00,
2013-03-03 01:25:00,27.9,16.9,29.63,North,350,3.5,3.5,63,0.00,OVC,,0.00,WeatherDisplay:10.37,2013-03-03 06:25:00,
2013-03-03 01:30:00,27.7,16.7,29.63,North,350,3.5,3.5,63,0.00,OVC,,0.00,WeatherDisplay:10.37,2013-03-03 06:30:00,
2013-03-03 01:35:00,27.7,17.1,29.63,North,350,3.5,3.5,64,0.00,OVC,,0.00,WeatherDisplay:10.37,2013-03-03 06:35:00,
2013-03-03 01:40:00,27.5,16.9,29.63,North,350,3.5,3.5,64,0.00,OVC,,0.00,WeatherDisplay:10.37,2013-03-03 06:40:00,
2013-03-03 01:45:00,27.5,16.9,29.63,NNW,330,4.6,4.6,64,0.00,SCT,,0.00,WeatherDisplay:10.37,2013-03-03 06:45:00,
2013-03-03 01:50:00,27.3,17.1,29.63,NNW,330,4.6,4.6,65,0.00,SCT,,0.00,WeatherDisplay:10.37,2013-03-03 06:50:00,
2013-03-03 01:55:00,27.3,17.1,29.63,NNW,330,3.5,3.5,65,0.00,CLR,,0.00,WeatherDisplay:10.37,2013-03-03 06:55:00,
2013-03-03 02:00:00,27.1,16.9,29.63,NNW,330,3.5,3.5,65,0.00,CLR,,0.00,WeatherDisplay:10.37,2013-03-03 07:00:00,
2013-03-03 02:05:00,27.1,16.9,29.63,NNW,330,3.5,3.5,65,0.00,CLR,,0.00,WeatherDisplay:10.37,2013-03-03 07:05:00,
2013-03-03 02:10:00,27.0,16.8,29.62,NNW,330,3.5,3.5,65,0.00,CLR,,0.00,WeatherDisplay:10.37,2013-03-03 07:10:00,
2013-03-03 02:15:00,27.0,16.8,29.62,NNW,330,0.0,0.0,65,0.00,CLR,,0.00,WeatherDisplay:10.37,2013-03-03 07:15:00,
2013-03-03 02:20:00,26.8,16.6,29.62,NNW,330,0.0,0.0,65,0.00,CLR,,0.00,WeatherDisplay:10.37,2013-03-03 07:20:00,
2013-03-03 02:25:00,26.6,16.4,29.62,NNW,330,0.0,0.0,65,0.00,CLR,,0.00,WeatherDisplay:10.37,2013-03-03 07:25:00,
2013-03-03 02:30:00,26.8,16.6,29.62,NNW,330,0.0,0.0,65,0.00,CLR,,0.00,WeatherDisplay:10.37,2013-03-03 07:30:00,
2013-03-03 02:35:00,26.8,16.6,29.62,NNW,330,0.0,0.0,65,0.00,CLR,,0.00,WeatherDisplay:10.37,2013-03-03 07:35:00,
2013-03-03 02:40:00,26.8,16.2,29.62,NNW,330,0.0,0.0,64,0.00,CLR,,0.00,WeatherDisplay:10.37,2013-03-03 07:40:00,
2013-03-03 02:45:00,26.8,16.2,29.62,NNW,330,0.0,0.0,64,0.00,CLR,,0.00,WeatherDisplay:10.37,2013-03-03 07:45:00,
2013-03-03 02:50:00,26.8,16.2,29.61,NNW,330,0.0,0.0,64,0.00,CLR,,0.00,WeatherDisplay:10.37,2013-03-03 07:50:00,
2013-03-03 02:55:00,26.6,16.1,29.62,NNW,330,0.0,0.0,64,0.00,CLR,,0.00,WeatherDisplay:10.37,2013-03-03 07:55:00,
2013-03-03 03:00:00,26.4,16.2,29.61,NNW,330,0.0,0.0,65,0.00,CLR,,0.00,WeatherDisplay:10.37,2013-03-03 08:00:00,
2013-03-03 03:05:00,26.4,16.2,29.61,NNW,330,0.0,0.0,65,0.00,CLR,,0.00,WeatherDisplay:10.37,2013-03-03 08:05:00,
2013-03-03 03:10:00,26.4,16.2,29.61,NNW,330,0.0,0.0,65,0.00,CLR,,0.00,WeatherDisplay:10.37,2013-03-03 08:10:00,
2013-03-03 03:15:00,26.2,16.1,29.61,NNW,330,0.0,0.0,65,0.00,SCT,,0.00,WeatherDisplay:10.37,2013-03-03 08:15:00,
2013-03-03 03:20:00,26.2,16.1,29.61,NNW,330,0.0,0.0,65,0.00,SCT,,0.00,WeatherDisplay:10.37,2013-03-03 08:20:00,
2013-03-03 03:25:00,26.1,15.9,29.61,NNW,330,0.0,0.0,65,0.00,SCT,,0.00,WeatherDisplay:10.37,2013-03-03 08:25:00,
2013-03-03 03:30:00,25.7,15.6,29.61,NNW,330,0.0,0.0,65,0.00,SCT,,0.00,WeatherDisplay:10.37,2013-03-03 08:30:00,
2013-03-03 03:35:00,25.5,15.4,29.61,NNW,330,0.0,0.0,65,0.00,SCT,,0.00,WeatherDisplay:10.37,2013-03-03 08:35:00,
2013-03-03 03:40:00,25.5,15.7,29.61,NNW,330,0.0,0.0,66,0.00,SCT,,0.00,WeatherDisplay:10.37,2013-03-03 08:40:00,
2013-03-03 03:45:00,25.3,15.6,29.61,NNW,330,0.0,0.0,66,0.00,SCT,,0.00,WeatherDisplay:10.37,2013-03-03 08:45:00,
2013-03-03 03:50:00,25.5,15.4,29.61,NNW,330,0.0,0.0,65,0.00,SCT,,0.00,WeatherDisplay:10.37,2013-03-03 08:50:00,
2013-03-03 03:55:00,25.5,15.4,29.61,NNW,330,0.0,0.0,65,0.00,BKN,,0.00,WeatherDisplay:10.37,2013-03-03 08:55:00,
2013-03-03 04:00:00,25.7,15.6,29.61,NNW,330,0.0,0.0,65,0.00,BKN,,0.00,WeatherDisplay:10.37,2013-03-03 09:00:00,
2013-03-03 04:05:00,25.7,15.6,29.61,NNW,330,0.0,0.0,65,0.00,BKN,,0.00,WeatherDisplay:10.37,2013-03-03 09:05:00,
2013-03-03 04:10:00,25.7,15.2,29.61,NNW,330,0.0,0.0,64,0.00,BKN,,0.00,WeatherDisplay:10.37,2013-03-03 09:10:00,
2013-03-03 04:15:00,25.7,15.2,29.61,NNW,330,0.0,0.0,64,0.00,BKN,,0.00,WeatherDisplay:10.37,2013-03-03 09:15:00,
2013-03-03 04:20:00,25.5,15.0,29.62,NNW,330,0.0,0.0,64,0.00,BKN,,0.00,WeatherDisplay:10.37,2013-03-03 09:20:00,
2013-03-03 04:25:00,25.5,15.0,29.61,NNW,330,0.0,0.0,64,0.00,BKN,,0.00,WeatherDisplay:10.37,2013-03-03 09:25:00,
2013-03-03 04:30:00,25.3,14.9,29.61,NNW,330,0.0,0.0,64,0.00,BKN,,0.00,WeatherDisplay:10.37,2013-03-03 09:30:00,
2013-03-03 04:35:00,25.2,14.7,29.61,NNW,330,0.0,0.0,64,0.00,BKN,,0.00,WeatherDisplay:10.37,2013-03-03 09:35:00,
2013-03-03 04:40:00,25.2,14.7,29.61,NNW,330,0.0,0.0,64,0.00,BKN,,0.00,WeatherDisplay:10.37,2013-03-03 09:40:00,
2013-03-03 04:45:00,25.0,14.9,29.61,NNW,330,0.0,0.0,65,0.00,OVC,,0.00,WeatherDisplay:10.37,2013-03-03 09:45:00,
2013-03-03 04:50:00,24.6,14.5,29.61,NNW,330,0.0,0.0,65,0.00,OVC,,0.00,WeatherDisplay:10.37,2013-03-03 09:50:00,
2013-03-03 04:55:00,24.6,14.5,29.61,NNW,330,0.0,0.0,65,0.00,OVC,,0.00,WeatherDisplay:10.37,2013-03-03 09:55:00,
2013-03-03 05:00:00,24.6,14.5,29.61,NNW,330,0.0,0.0,65,0.00,OVC,,0.00,WeatherDisplay:10.37,2013-03-03 10:00:00,
2013-03-03 05:05:00,24.6,14.5,29.62,NNW,330,0.0,0.0,65,0.00,BKN,,0.00,WeatherDisplay:10.37,2013-03-03 10:05:00,
2013-03-03 05:10:00,24.6,14.5,29.62,NNW,330,0.0,0.0,65,0.00,BKN,,0.00,WeatherDisplay:10.37,2013-03-03 10:10:00,
2013-03-03 05:15:00,24.6,14.5,29.62,NNW,330,0.0,0.0,65,0.00,BKN,,0.00,WeatherDisplay:10.37,2013-03-03 10:15:00,
2013-03-03 05:20:00,24.6,14.5,29.62,NNW,330,0.0,0.0,65,0.00,BKN,,0.00,WeatherDisplay:10.37,2013-03-03 10:20:00,
2013-03-03 05:25:00,24.6,14.5,29.62,NNW,330,0.0,0.0,65,0.00,CLR,,0.00,WeatherDisplay:10.37,2013-03-03 10:25:00,
2013-03-03 05:30:00,24.6,14.5,29.62,NNW,330,0.0,0.0,65,0.00,CLR,,0.00,WeatherDisplay:10.37,2013-03-03 10:30:00,
2013-03-03 05:35:00,24.6,14.5,29.62,NNW,330,0.0,0.0,65,0.00,CLR,,0.00,WeatherDisplay:10.37,2013-03-03 10:35:00,
2013-03-03 05:40:00,24.6,14.5,29.62,NNW,330,0.0,0.0,65,0.00,CLR,,0.00,WeatherDisplay:10.37,2013-03-03 10:40:00,
2013-03-03 05:45:00,24.6,14.5,29.62,NNW,330,0.0,0.0,65,0.00,CLR,,0.00,WeatherDisplay:10.37,2013-03-03 10:45:00,
2013-03-03 05:50:00,24.6,14.5,29.62,NNW,330,0.0,0.0,65,0.00,CLR,,0.00,WeatherDisplay:10.37,2013-03-03 10:50:00,
2013-03-03 05:55:00,24.6,14.5,29.62,NNW,330,0.0,0.0,65,0.00,CLR,,0.00,WeatherDisplay:10.37,2013-03-03 10:55:00,
2013-03-03 06:00:00,24.6,14.5,29.62,NNW,330,0.0,0.0,65,0.00,CLR,,0.00,WeatherDisplay:10.37,2013-03-03 11:00:00,
2013-03-03 06:05:00,24.6,14.5,29.62,NNW,330,0.0,0.0,65,0.00,CLR,,0.00,WeatherDisplay:10.37,2013-03-03 11:05:00,
2013-03-03 06:10:00,24.6,14.5,29.62,NNW,330,0.0,0.0,65,0.00,CLR,,0.00,WeatherDisplay:10.37,2013-03-03 11:10:00,
2013-03-03 06:15:00,24.6,14.5,29.62,NNW,330,0.0,0.0,65,0.00,CLR,,0.00,WeatherDisplay:10.37,2013-03-03 11:15:00,
2013-03-03 06:20:00,24.6,14.5,29.62,NNW,330,0.0,0.0,65,0.00,CLR,,0.00,WeatherDisplay:10.37,2013-03-03 11:20:00,
2013-03-03 06:25:00,24.6,14.5,29.62,NNW,330,0.0,0.0,65,0.00,CLR,,0.00,WeatherDisplay:10.37,2013-03-03 11:25:00,
2013-03-03 06:30:00,25.0,14.9,29.63,NNW,330,0.0,0.0,65,0.00,CLR,,0.00,WeatherDisplay:10.37,2013-03-03 11:30:00,
2013-03-03 06:35:00,25.0,14.5,29.63,NNW,330,0.0,0.0,64,0.00,CLR,,0.00,WeatherDisplay:10.37,2013-03-03 11:35:00,
2013-03-03 06:40:00,25.2,14.7,29.62,NNW,330,0.0,0.0,64,0.00,CLR,,0.00,WeatherDisplay:10.37,2013-03-03 11:40:00,
2013-03-03 06:45:00,25.3,14.9,29.62,NNW,330,0.0,0.0,64,0.00,CLR,,0.00,WeatherDisplay:10.37,2013-03-03 11:45:00,
2013-03-03 06:50:00,25.3,14.9,29.63,NNW,330,0.0,0.0,64,0.00,CLR,,0.00,WeatherDisplay:10.37,2013-03-03 11:50:00,
2013-03-03 06:55:00,25.3,15.2,29.63,NNW,330,0.0,0.0,65,0.00,CLR,,0.00,WeatherDisplay:10.37,2013-03-03 11:55:00,
2013-03-03 07:00:00,25.2,15.0,29.63,NNW,330,0.0,0.0,65,0.00,CLR,,0.00,WeatherDisplay:10.37,2013-03-03 12:00:00,
2013-03-03 07:05:00,25.2,15.0,29.62,NNW,330,0.0,0.0,65,0.00,CLR,,0.00,WeatherDisplay:10.37,2013-03-03 12:05:00,
2013-03-03 07:10:00,25.2,15.0,29.63,NNW,330,0.0,0.0,65,0.00,CLR,,0.00,WeatherDisplay:10.37,2013-03-03 12:10:00,
2013-03-03 07:15:00,25.0,14.9,29.63,NNW,330,0.0,0.0,65,0.00,CLR,,0.00,WeatherDisplay:10.37,2013-03-03 12:15:00,
2013-03-03 07:20:00,25.2,15.0,29.63,NNW,330,0.0,0.0,65,0.00,CLR,,0.00,WeatherDisplay:10.37,2013-03-03 12:20:00,
2013-03-03 07:25:00,25.3,15.2,29.63,NNW,330,0.0,0.0,65,0.00,CLR,,0.00,WeatherDisplay:10.37,2013-03-03 12:25:00,
2013-03-03 07:30:00,25.3,15.2,29.63,NNW,330,0.0,0.0,65,0.00,CLR,,0.00,WeatherDisplay:10.37,2013-03-03 12:30:00,
2013-03-03 07:35:00,25.5,15.7,29.63,NNW,330,0.0,0.0,66,0.00,SCT,,0.00,WeatherDisplay:10.37,2013-03-03 12:35:00,
2013-03-03 07:40:00,26.2,16.1,29.63,NNW,330,0.0,0.0,65,0.00,SCT,,0.00,WeatherDisplay:10.37,2013-03-03 12:40:00,
2013-03-03 07:45:00,27.0,16.8,29.64,NNW,330,0.0,0.0,65,0.00,SCT,,0.00,WeatherDisplay:10.37,2013-03-03 12:45:00,
2013-03-03 07:50:00,27.3,16.7,29.64,NNW,330,0.0,0.0,64,0.00,SCT,,0.00,WeatherDisplay:10.37,2013-03-03 12:50:00,
2013-03-03 07:55:00,27.7,17.1,29.64,NNW,330,0.0,0.0,64,0.00,BKN,,0.00,WeatherDisplay:10.37,2013-03-03 12:55:00,
2013-03-03 08:00:00,28.0,17.1,29.64,NNW,330,0.0,0.0,63,0.00,BKN,,0.00,WeatherDisplay:10.37,2013-03-03 13:00:00,
2013-03-03 08:05:00,28.0,17.1,29.64,NNW,330,0.0,0.0,63,0.00,OVC,,0.00,WeatherDisplay:10.37,2013-03-03 13:05:00,
2013-03-03 08:10:00,28.0,17.1,29.64,NNW,330,0.0,0.0,63,0.00,OVC,,0.00,WeatherDisplay:10.37,2013-03-03 13:10:00,
2013-03-03 08:15:00,28.2,17.2,29.65,NNW,330,0.0,0.0,63,0.00,OVC,,0.00,WeatherDisplay:10.37,2013-03-03 13:15:00,
2013-03-03 08:20:00,28.8,17.4,29.64,NNW,330,0.0,0.0,62,0.00,OVC,,0.00,WeatherDisplay:10.37,2013-03-03 13:20:00,
2013-03-03 08:25:00,28.9,17.5,29.64,NNW,330,0.0,0.0,62,0.00,OVC,,0.00,WeatherDisplay:10.37,2013-03-03 13:25:00,
2013-03-03 08:30:00,29.1,17.3,29.64,NNW,330,0.0,0.0,61,0.00,OVC,,0.00,WeatherDisplay:10.37,2013-03-03 13:30:00,
2013-03-03 08:35:00,29.1,17.3,29.64,NNW,330,0.0,0.0,61,0.00,OVC,,0.00,WeatherDisplay:10.37,2013-03-03 13:35:00,
2013-03-03 08:40:00,29.5,17.7,29.64,NNW,330,0.0,0.0,61,0.00,OVC,,0.00,WeatherDisplay:10.37,2013-03-03 13:40:00,
2013-03-03 08:45:00,29.5,17.7,29.64,NNW,330,0.0,0.0,61,0.00,OVC,,0.00,WeatherDisplay:10.37,2013-03-03 13:45:00,
2013-03-03 08:50:00,29.5,17.3,29.64,NNW,330,0.0,0.0,60,0.00,OVC,,0.00,WeatherDisplay:10.37,2013-03-03 13:50:00,
2013-03-03 08:55:00,29.5,17.3,29.64,NNW,330,0.0,0.0,60,0.00,OVC,,0.00,WeatherDisplay:10.37,2013-03-03 13:55:00,
2013-03-03 09:00:00,29.3,17.1,29.64,NNW,330,0.0,0.0,60,0.00,OVC,,0.00,WeatherDisplay:10.37,2013-03-03 14:00:00,
2013-03-03 09:05:00,29.5,17.3,29.64,NNW,330,0.0,0.0,60,0.00,OVC,,0.00,WeatherDisplay:10.37,2013-03-03 14:05:00,
2013-03-03 09:10:00,29.7,17.5,29.64,NNW,330,0.0,0.0,60,0.00,OVC,,0.00,WeatherDisplay:10.37,2013-03-03 14:10:00,
2013-03-03 09:15:00,30.4,17.7,29.64,WNW,290,3.5,3.5,59,0.00,OVC,,0.00,WeatherDisplay:10.37,2013-03-03 14:15:00,
2013-03-03 09:20:00,30.6,17.9,29.64,WNW,290,3.5,3.5,59,0.00,OVC,,0.00,WeatherDisplay:10.37,2013-03-03 14:20:00,
2013-03-03 09:25:00,30.7,17.7,29.64,West,280,6.9,6.9,58,0.00,OVC,,0.00,WeatherDisplay:10.37,2013-03-03 14:25:00,
2013-03-03 09:30:00,30.7,17.7,29.64,West,280,6.9,6.9,58,0.00,OVC,,0.00,WeatherDisplay:10.37,2013-03-03 14:30:00,
2013-03-03 09:35:00,30.7,17.3,29.64,West,280,6.9,6.9,57,0.00,OVC,,0.00,WeatherDisplay:10.37,2013-03-03 14:35:00,
2013-03-03 09:40:00,30.6,16.7,29.64,West,280,6.9,6.9,56,0.00,OVC,,0.00,WeatherDisplay:10.37,2013-03-03 14:40:00,
2013-03-03 09:45:00,30.7,16.9,29.64,NW,310,8.1,8.1,56,0.00,OVC,,0.00,WeatherDisplay:10.37,2013-03-03 14:45:00,
2013-03-03 09:50:00,32.2,18.2,29.64,NW,310,8.1,8.1,56,0.00,OVC,,0.00,WeatherDisplay:10.37,2013-03-03 14:50:00,
2013-03-03 09:55:00,33.3,18.4,29.63,NW,310,8.1,8.1,54,0.00,OVC,,0.00,WeatherDisplay:10.37,2013-03-03 14:55:00,
2013-03-03 10:00:00,33.8,18.9,29.63,NW,310,8.1,8.1,54,0.00,OVC,,0.00,WeatherDisplay:10.37,2013-03-03 15:00:00,
2013-03-03 10:05:00,34.9,19.5,29.64,WNW,300,8.1,8.1,53,0.00,OVC,,0.00,WeatherDisplay:10.37,2013-03-03 15:05:00,
2013-03-03 10:10:00,35.4,19.5,29.64,WNW,300,8.1,8.1,52,0.00,OVC,,0.00,WeatherDisplay:10.37,2013-03-03 15:10:00,
2013-03-03 10:15:00,35.4,18.6,29.64,WNW,300,8.1,8.1,50,0.00,OVC,,0.00,WeatherDisplay:10.37,2013-03-03 15:15:00,
2013-03-03 10:20:00,34.9,18.6,29.64,WNW,300,8.1,8.1,51,0.00,OVC,,0.00,WeatherDisplay:10.37,2013-03-03 15:20:00,
2013-03-03 10:25:00,34.0,17.7,29.64,WNW,300,0.0,0.0,51,0.00,OVC,,0.00,WeatherDisplay:10.37,2013-03-03 15:25:00,
2013-03-03 10:30:00,34.0,18.2,29.64,WNW,300,0.0,0.0,52,0.00,OVC,,0.00,WeatherDisplay:10.37,2013-03-03 15:30:00,
2013-03-03 10:35:00,34.9,19.0,29.63,WNW,300,0.0,0.0,52,0.00,OVC,,0.00,WeatherDisplay:10.37,2013-03-03 15:35:00,
2013-03-03 10:40:00,34.9,18.6,29.64,WNW,300,0.0,0.0,51,0.00,OVC,,0.00,WeatherDisplay:10.37,2013-03-03 15:40:00,
2013-03-03 10:45:00,34.9,18.1,29.64,WNW,300,4.6,4.6,50,0.00,OVC,,0.00,WeatherDisplay:10.37,2013-03-03 15:45:00,
2013-03-03 10:50:00,35.4,19.1,29.63,WNW,300,4.6,4.6,51,0.00,OVC,,0.00,WeatherDisplay:10.37,2013-03-03 15:50:00,
2013-03-03 10:55:00,36.3,19.4,29.64,WNW,300,4.6,4.6,50,0.00,OVC,,0.00,WeatherDisplay:10.37,2013-03-03 15:55:00,
2013-03-03 11:00:00,36.7,19.8,29.63,WNW,300,4.6,4.6,50,0.00,OVC,,0.00,WeatherDisplay:10.37,2013-03-03 16:00:00,
2013-03-03 11:05:00,36.1,19.3,29.63,NW,310,6.9,6.9,50,0.00,OVC,,0.00,WeatherDisplay:10.37,2013-03-03 16:05:00,
2013-03-03 11:10:00,35.4,18.1,29.63,NW,310,6.9,6.9,49,0.00,OVC,,0.00,WeatherDisplay:10.37,2013-03-03 16:10:00,
2013-03-03 11:15:00,35.2,18.0,29.63,NW,310,6.9,6.9,49,0.00,OVC,,0.00,WeatherDisplay:10.37,2013-03-03 16:15:00,
2013-03-03 11:20:00,34.9,17.6,29.63,NW,310,6.9,6.9,49,0.00,OVC,,0.00,WeatherDisplay:10.37,2013-03-03 16:20:00,
2013-03-03 11:25:00,34.9,18.1,29.63,WNW,290,19.6,19.6,50,0.00,SCT,,0.00,WeatherDisplay:10.37,2013-03-03 16:25:00,
2013-03-03 11:30:00,34.9,18.1,29.63,WNW,290,19.6,19.6,50,0.00,SCT,,0.00,WeatherDisplay:10.37,2013-03-03 16:30:00,
2013-03-03 11:35:00,34.7,17.5,29.63,WNW,290,19.6,19.6,49,0.00,SCT,,0.00,WeatherDisplay:10.37,2013-03-03 16:35:00,
2013-03-03 11:40:00,34.9,18.1,29.62,WNW,290,19.6,19.6,50,0.00,SCT,,0.00,WeatherDisplay:10.37,2013-03-03 16:40:00,
2013-03-03 11:45:00,34.9,17.6,29.62,WNW,290,3.5,3.5,49,0.00,SCT,,0.00,WeatherDisplay:10.37,2013-03-03 16:45:00,
2013-03-03 11:50:00,35.4,18.1,29.62,WNW,290,3.5,3.5,49,0.00,SCT,,0.00,WeatherDisplay:10.37,2013-03-03 16:50:00,
2013-03-03 11:55:00,35.2,18.0,29.62,WNW,290,3.5,3.5,49,0.00,SCT,,0.00,WeatherDisplay:10.37,2013-03-03 16:55:00,
2013-03-03 12:00:00,35.4,18.1,29.62,WNW,290,3.5,3.5,49,0.00,SCT,,0.00,WeatherDisplay:10.37,2013-03-03 17:00:00,
2013-03-03 12:05:00,35.8,18.5,29.62,WNW,290,3.5,3.5,49,0.00,SCT,,0.00,WeatherDisplay:10.37,2013-03-03 17:05:00,
2013-03-03 12:10:00,36.3,19.0,29.62,WNW,290,3.5,3.5,49,0.00,SCT,,0.00,WeatherDisplay:10.37,2013-03-03 17:10:00,
2013-03-03 12:15:00,37.8,20.3,29.62,NW,320,8.1,8.1,49,0.00,SCT,,0.00,WeatherDisplay:10.37,2013-03-03 17:15:00,
2013-03-03 12:20:00,37.9,20.0,29.61,NW,320,8.1,8.1,48,0.00,SCT,,0.00,WeatherDisplay:10.37,2013-03-03 17:20:00,
2013-03-03 12:25:00,37.8,19.3,29.61,NW,320,8.1,8.1,47,0.00,SCT,,0.00,WeatherDisplay:10.37,2013-03-03 17:25:00,
2013-03-03 12:30:00,37.0,18.7,29.61,NW,320,8.1,8.1,47,0.00,SCT,,0.00,WeatherDisplay:10.37,2013-03-03 17:30:00,
2013-03-03 12:35:00,36.7,18.8,29.61,NNW,330,8.1,8.1,48,0.00,BKN,,0.00,WeatherDisplay:10.37,2013-03-03 17:35:00,
2013-03-03 12:40:00,37.2,19.3,29.61,NNW,330,8.1,8.1,48,0.00,BKN,,0.00,WeatherDisplay:10.37,2013-03-03 17:40:00,
2013-03-03 12:45:00,37.9,19.5,29.60,NW,310,9.2,9.2,47,0.00,SCT,,0.00,WeatherDisplay:10.37,2013-03-03 17:45:00,
2013-03-03 12:50:00,39.0,20.5,29.59,NW,310,9.2,9.2,47,0.00,SCT,,0.00,WeatherDisplay:10.37,2013-03-03 17:50:00,
2013-03-03 12:55:00,39.7,20.6,29.60,NW,310,9.2,9.2,46,0.00,SCT,,0.00,WeatherDisplay:10.37,2013-03-03 17:55:00,
2013-03-03 13:00:00,39.4,20.3,29.59,NW,310,9.2,9.2,46,0.00,SCT,,0.00,WeatherDisplay:10.37,2013-03-03 18:00:00,
2013-03-03 13:05:00,39.4,20.3,29.59,NW,320,18.4,18.4,46,0.00,SCT,,0.00,WeatherDisplay:10.37,2013-03-03 18:05:00,
2013-03-03 13:10:00,39.4,19.8,29.59,NW,320,18.4,18.4,45,0.00,SCT,,0.00,WeatherDisplay:10.37,2013-03-03 18:10:00,
2013-03-03 13:15:00,39.9,20.8,29.59,NW,320,18.4,18.4,46,0.00,SCT,,0.00,WeatherDisplay:10.37,2013-03-03 18:15:00,
2013-03-03 13:20:00,39.9,20.3,29.59,NW,320,18.4,18.4,45,0.00,SCT,,0.00,WeatherDisplay:10.37,2013-03-03 18:20:00,
2013-03-03 13:25:00,40.3,20.6,29.59,NW,320,18.4,18.4,45,0.00,SCT,,0.00,WeatherDisplay:10.37,2013-03-03 18:25:00,
2013-03-03 13:30:00,40.8,21.1,29.59,NW,320,18.4,18.4,45,0.00,SCT,,0.00,WeatherDisplay:10.37,2013-03-03 18:30:00,
2013-03-03 13:35:00,40.8,20.6,29.59,North,10,5.8,5.8,44,0.00,BKN,,0.00,WeatherDisplay:10.37,2013-03-03 18:35:00,
2013-03-03 13:40:00,41.4,21.6,29.58,North,10,5.8,5.8,45,0.00,BKN,,0.00,WeatherDisplay:10.37,2013-03-03 18:40:00,
2013-03-03 13:45:00,41.2,20.9,29.58,North,10,5.8,5.8,44,0.00,BKN,,0.00,WeatherDisplay:10.37,2013-03-03 18:45:00,
2013-03-03 13:50:00,39.9,19.7,29.58,North,10,5.8,5.8,44,0.00,BKN,,0.00,WeatherDisplay:10.37,2013-03-03 18:50:00,
2013-03-03 13:55:00,40.3,20.1,29.58,NW,320,9.2,9.2,44,0.00,BKN,,0.00,WeatherDisplay:10.37,2013-03-03 18:55:00,
2013-03-03 14:00:00,40.3,20.1,29.58,NW,320,9.2,9.2,44,0.00,BKN,,0.00,WeatherDisplay:10.37,2013-03-03 19:00:00,
2013-03-03 14:05:00,40.1,19.9,29.58,NW,310,6.9,6.9,44,0.00,OVC,,0.00,WeatherDisplay:10.37,2013-03-03 19:05:00,
2013-03-03 14:10:00,39.4,19.3,29.58,NW,310,6.9,6.9,44,0.00,OVC,,0.00,WeatherDisplay:10.37,2013-03-03 19:10:00,
2013-03-03 14:15:00,39.0,18.9,29.58,NW,310,6.9,6.9,44,0.00,OVC,,0.00,WeatherDisplay:10.37,2013-03-03 19:15:00,
2013-03-03 14:20:00,39.0,19.4,29.58,NW,310,6.9,6.9,45,0.00,OVC,,0.00,WeatherDisplay:10.37,2013-03-03 19:20:00,
2013-03-03 14:25:00,38.8,19.3,29.58,North,350,4.6,4.6,45,0.00,OVC,,0.00,WeatherDisplay:10.37,2013-03-03 19:25:00,
2013-03-03 14:30:00,37.9,18.5,29.58,North,350,4.6,4.6,45,0.00,OVC,,0.00,WeatherDisplay:10.37,2013-03-03 19:30:00,
2013-03-03 14:35:00,37.2,17.8,29.58,North,350,4.6,4.6,45,0.00,OVC,,0.00,WeatherDisplay:10.37,2013-03-03 19:35:00,
2013-03-03 14:40:00,37.2,17.8,29.58,North,350,4.6,4.6,45,0.00,OVC,,0.00,WeatherDisplay:10.37,2013-03-03 19:40:00,
2013-03-03 14:45:00,37.8,18.8,29.58,NNW,330,10.4,10.4,46,0.00,OVC,,0.00,WeatherDisplay:10.37,2013-03-03 19:45:00,
2013-03-03 14:50:00,38.5,19.5,29.58,NNW,330,10.4,10.4,46,0.00,OVC,,0.00,WeatherDisplay:10.37,2013-03-03 19:50:00,
2013-03-03 14:55:00,38.3,19.3,29.59,NNW,330,10.4,10.4,46,0.00,OVC,,0.00,WeatherDisplay:10.37,2013-03-03 19:55:00,
2013-03-03 15:00:00,38.7,19.1,29.59,NNW,330,10.4,10.4,45,0.00,OVC,,0.00,WeatherDisplay:10.37,2013-03-03 20:00:00,
2013-03-03 15:05:00,38.5,19.5,29.59,NNW,330,10.4,10.4,46,0.00,OVC,,0.00,WeatherDisplay:10.37,2013-03-03 20:05:00,
2013-03-03 15:10:00,37.9,18.5,29.59,NNW,330,10.4,10.4,45,0.00,OVC,,0.00,WeatherDisplay:10.37,2013-03-03 20:10:00,
2013-03-03 15:15:00,36.9,18.0,29.59,NNW,330,10.4,10.4,46,0.00,OVC,,0.00,WeatherDisplay:10.37,2013-03-03 20:15:00,
2013-03-03 15:20:00,36.7,17.8,29.59,NNW,330,10.4,10.4,46,0.00,OVC,,0.00,WeatherDisplay:10.37,2013-03-03 20:20:00,
2013-03-03 15:25:00,37.8,19.3,29.60,WNW,300,26.5,26.5,47,0.00,BKN,,0.00,WeatherDisplay:10.37,2013-03-03 20:25:00,
2013-03-03 15:30:00,38.1,19.1,29.59,WNW,300,26.5,26.5,46,0.00,BKN,,0.00,WeatherDisplay:10.37,2013-03-03 20:30:00,
2013-03-03 15:35:00,37.9,19.0,29.59,WNW,300,26.5,26.5,46,0.00,BKN,,0.00,WeatherDisplay:10.37,2013-03-03 20:35:00,
2013-03-03 15:40:00,37.6,18.6,29.59,WNW,300,26.5,26.5,46,0.00,BKN,,0.00,WeatherDisplay:10.37,2013-03-03 20:40:00,
2013-03-03 15:45:00,37.6,18.6,29.59,NW,320,20.7,20.7,46,0.00,BKN,,0.00,WeatherDisplay:10.37,2013-03-03 20:45:00,
2013-03-03 15:50:00,37.2,18.3,29.59,NW,320,20.7,20.7,46,0.00,BKN,,0.00,WeatherDisplay:10.37,2013-03-03 20:50:00,
2013-03-03 15:55:00,36.5,17.7,29.60,NW,320,20.7,20.7,46,0.00,BKN,,0.00,WeatherDisplay:10.37,2013-03-03 20:55:00,
2013-03-03 16:00:00,36.7,18.3,29.60,NW,320,20.7,20.7,47,0.00,BKN,,0.00,WeatherDisplay:10.37,2013-03-03 21:00:00,
2013-03-03 16:05:00,36.7,18.3,29.60,WNW,300,24.2,24.2,47,0.00,OVC,,0.00,WeatherDisplay:10.37,2013-03-03 21:05:00,
2013-03-03 16:10:00,36.7,17.8,29.60,WNW,300,24.2,24.2,46,0.00,OVC,,0.00,WeatherDisplay:10.37,2013-03-03 21:10:00,
2013-03-03 16:15:00,36.5,18.2,29.60,WNW,300,24.2,24.2,47,0.00,OVC,,0.00,WeatherDisplay:10.37,2013-03-03 21:15:00,
2013-03-03 16:20:00,36.3,18.0,29.60,WNW,300,24.2,24.2,47,0.00,OVC,,0.00,WeatherDisplay:10.37,2013-03-03 21:20:00,
2013-03-03 16:25:00,36.3,18.0,29.60,NW,310,13.8,13.8,47,0.00,BKN,,0.00,WeatherDisplay:10.37,2013-03-03 21:25:00,
2013-03-03 16:30:00,36.1,17.8,29.60,NW,310,13.8,13.8,47,0.00,BKN,,0.00,WeatherDisplay:10.37,2013-03-03 21:30:00,
2013-03-03 16:35:00,36.0,18.1,29.60,NW,310,13.8,13.8,48,0.00,BKN,,0.00,WeatherDisplay:10.37,2013-03-03 21:35:00,
2013-03-03 16:40:00,35.8,17.5,29.60,NW,310,13.8,13.8,47,0.00,BKN,,0.00,WeatherDisplay:10.37,2013-03-03 21:40:00,
2013-03-03 16:45:00,36.0,18.1,29.61,NW,310,10.4,10.4,48,0.00,SCT,,0.00,WeatherDisplay:10.37,2013-03-03 21:45:00,
2013-03-03 16:50:00,36.0,18.1,29.61,NW,310,10.4,10.4,48,0.00,SCT,,0.00,WeatherDisplay:10.37,2013-03-03 21:50:00,
2013-03-03 16:55:00,35.4,17.2,29.61,NW,310,10.4,10.4,47,0.00,SCT,,0.00,WeatherDisplay:10.37,2013-03-03 21:55:00,
2013-03-03 17:00:00,35.4,17.2,29.61,NW,310,10.4,10.4,47,0.00,SCT,,0.00,WeatherDisplay:10.37,2013-03-03 22:00:00,
2013-03-03 17:05:00,34.9,16.7,29.61,NW,320,11.5,11.5,47,0.00,CLR,,0.00,WeatherDisplay:10.37,2013-03-03 22:05:00,
2013-03-03 17:10:00,34.7,16.5,29.61,NW,320,11.5,11.5,47,0.00,CLR,,0.00,WeatherDisplay:10.37,2013-03-03 22:10:00,
2013-03-03 17:15:00,34.3,16.2,29.62,NW,320,11.5,11.5,47,0.00,CLR,,0.00,WeatherDisplay:10.37,2013-03-03 22:15:00,
2013-03-03 17:20:00,34.3,16.7,29.62,NW,320,11.5,11.5,48,0.00,CLR,,0.00,WeatherDisplay:10.37,2013-03-03 22:20:00,
2013-03-03 17:25:00,33.8,16.2,29.62,NW,310,12.7,12.7,48,0.00,CLR,,0.00,WeatherDisplay:10.37,2013-03-03 22:25:00,
2013-03-03 17:30:00,33.6,16.5,29.63,NW,310,12.7,12.7,49,0.00,CLR,,0.00,WeatherDisplay:10.37,2013-03-03 22:30:00,
2013-03-03 17:35:00,33.4,16.3,29.63,NW,310,12.7,12.7,49,0.00,CLR,,0.00,WeatherDisplay:10.37,2013-03-03 22:35:00,
2013-03-03 17:40:00,32.9,15.8,29.63,NW,310,12.7,12.7,49,0.00,CLR,,0.00,WeatherDisplay:10.37,2013-03-03 22:40:00,
2013-03-03 17:45:00,32.7,15.6,29.63,NW,310,12.7,12.7,49,0.00,CLR,,0.00,WeatherDisplay:10.37,2013-03-03 22:45:00,
2013-03-03 17:50:00,32.7,16.1,29.63,NW,310,12.7,12.7,50,0.00,CLR,,0.00,WeatherDisplay:10.37,2013-03-03 22:50:00,
2013-03-03 17:55:00,32.5,15.9,29.63,NW,320,12.7,12.7,50,0.00,CLR,,0.00,WeatherDisplay:10.37,2013-03-03 22:55:00,
2013-03-03 18:00:00,32.2,15.6,29.63,NW,320,12.7,12.7,50,0.00,CLR,,0.00,WeatherDisplay:10.37,2013-03-03 23:00:00,
2013-03-03 18:05:00,31.8,15.7,29.64,NW,320,12.7,12.7,51,0.00,CLR,,0.00,WeatherDisplay:10.37,2013-03-03 23:05:00,
2013-03-03 18:10:00,31.6,15.6,29.64,NW,320,12.7,12.7,51,0.00,CLR,,0.00,WeatherDisplay:10.37,2013-03-03 23:10:00,
2013-03-03 18:15:00,31.5,15.4,29.64,NW,310,23.0,23.0,51,0.00,CLR,,0.00,WeatherDisplay:10.37,2013-03-03 23:15:00,
2013-03-03 18:20:00,31.3,15.7,29.64,NW,310,23.0,23.0,52,0.00,CLR,,0.00,WeatherDisplay:10.37,2013-03-03 23:20:00,
2013-03-03 18:25:00,31.1,15.5,29.64,NW,310,23.0,23.0,52,0.00,CLR,,0.00,WeatherDisplay:10.37,2013-03-03 23:25:00,
2013-03-03 18:30:00,30.9,15.3,29.65,NW,310,23.0,23.0,52,0.00,CLR,,0.00,WeatherDisplay:10.37,2013-03-03 23:30:00,
2013-03-03 18:35:00,30.7,15.2,29.65,NW,310,20.7,20.7,52,0.00,CLR,,0.00,WeatherDisplay:10.37,2013-03-03 23:35:00,
2013-03-03 18:40:00,30.6,15.0,29.65,NW,310,20.7,20.7,52,0.00,CLR,,0.00,WeatherDisplay:10.37,2013-03-03 23:40:00,
2013-03-03 18:45:00,30.6,15.4,29.65,NW,310,20.7,20.7,53,0.00,CLR,,0.00,WeatherDisplay:10.37,2013-03-03 23:45:00,
2013-03-03 18:50:00,30.4,15.3,29.66,NW,310,20.7,20.7,53,0.00,CLR,,0.00,WeatherDisplay:10.37,2013-03-03 23:50:00,
2013-03-03 18:55:00,30.4,15.3,29.66,WNW,290,8.1,8.1,53,0.00,CLR,,0.00,WeatherDisplay:10.37,2013-03-03 23:55:00,
2013-03-03 19:00:00,30.0,14.9,29.66,WNW,290,8.1,8.1,53,0.00,CLR,,0.00,WeatherDisplay:10.37,2013-03-04 00:00:00,
2013-03-03 19:05:00,29.8,14.8,29.66,WNW,290,8.1,8.1,53,0.00,CLR,,0.00,WeatherDisplay:10.37,2013-03-04 00:05:00,
2013-03-03 19:10:00,29.7,14.6,29.66,WNW,290,8.1,8.1,53,0.00,CLR,,0.00,WeatherDisplay:10.37,2013-03-04 00:10:00,
2013-03-03 19:15:00,29.5,14.4,29.66,WNW,290,8.1,8.1,53,0.00,CLR,,0.00,WeatherDisplay:10.37,2013-03-04 00:15:00,
2013-03-03 19:20:00,29.5,14.4,29.66,WNW,290,8.1,8.1,53,0.00,CLR,,0.00,WeatherDisplay:10.37,2013-03-04 00:20:00,
2013-03-03 19:25:00,29.1,14.1,29.66,WNW,290,18.4,18.4,53,0.00,CLR,,0.00,WeatherDisplay:10.37,2013-03-04 00:25:00,
2013-03-03 19:30:00,29.1,14.1,29.67,WNW,290,18.4,18.4,53,0.00,CLR,,0.00,WeatherDisplay:10.37,2013-03-04 00:30:00,
2013-03-03 19:35:00,29.1,14.1,29.67,WNW,290,9.2,9.2,53,0.00,CLR,,0.00,WeatherDisplay:10.37,2013-03-04 00:35:00,
2013-03-03 19:40:00,28.9,13.9,29.67,WNW,290,9.2,9.2,53,0.00,CLR,,0.00,WeatherDisplay:10.37,2013-03-04 00:40:00,
2013-03-03 19:45:00,28.8,13.8,29.67,WNW,290,5.8,5.8,53,0.00,CLR,,0.00,WeatherDisplay:10.37,2013-03-04 00:45:00,
2013-03-03 19:50:00,28.6,14.0,29.67,WNW,290,5.8,5.8,54,0.00,CLR,,0.00,WeatherDisplay:10.37,2013-03-04 00:50:00,
2013-03-03 19:55:00,28.6,14.0,29.67,WNW,290,5.8,5.8,54,0.00,CLR,,0.00,WeatherDisplay:10.37,2013-03-04 00:55:00,
2013-03-03 20:00:00,28.2,13.7,29.68,WNW,290,5.8,5.8,54,0.00,CLR,,0.00,WeatherDisplay:10.37,2013-03-04 01:00:00,
2013-03-03 20:05:00,28.2,13.7,29.68,WNW,290,0.0,0.0,54,0.00,CLR,,0.00,WeatherDisplay:10.37,2013-03-04 01:05:00,
2013-03-03 20:10:00,28.2,13.7,29.68,WNW,290,0.0,0.0,54,0.00,CLR,,0.00,WeatherDisplay:10.37,2013-03-04 01:10:00,
2013-03-03 20:15:00,28.0,13.5,29.68,WNW,290,0.0,0.0,54,0.00,CLR,,0.00,WeatherDisplay:10.37,2013-03-04 01:15:00,
2013-03-03 20:20:00,28.0,13.5,29.68,WNW,290,0.0,0.0,54,0.00,CLR,,0.00,WeatherDisplay:10.37,2013-03-04 01:20:00,
2013-03-03 20:25:00,28.0,13.5,29.68,WNW,290,0.0,0.0,54,0.00,CLR,,0.00,WeatherDisplay:10.37,2013-03-04 01:25:00,
2013-03-03 20:30:00,27.7,13.2,29.68,WNW,290,0.0,0.0,54,0.00,CLR,,0.00,WeatherDisplay:10.37,2013-03-04 01:30:00,
2013-03-03 20:35:00,27.7,13.2,29.69,WNW,290,0.0,0.0,54,0.00,CLR,,0.00,WeatherDisplay:10.37,2013-03-04 01:35:00,
2013-03-03 20:40:00,27.5,13.0,29.69,WNW,290,0.0,0.0,54,0.00,CLR,,0.00,WeatherDisplay:10.37,2013-03-04 01:40:00,
2013-03-03 20:45:00,27.3,12.8,29.69,WNW,290,0.0,0.0,54,0.00,CLR,,0.00,WeatherDisplay:10.37,2013-03-04 01:45:00,
2013-03-03 20:50:00,27.3,12.8,29.69,WNW,290,0.0,0.0,54,0.00,CLR,,0.00,WeatherDisplay:10.37,2013-03-04 01:50:00,
2013-03-03 20:55:00,27.1,12.7,29.69,WNW,290,0.0,0.0,54,0.00,CLR,,0.00,WeatherDisplay:10.37,2013-03-04 01:55:00,
2013-03-03 21:00:00,27.1,12.7,29.69,WNW,290,0.0,0.0,54,0.00,CLR,,0.00,WeatherDisplay:10.37,2013-03-04 02:00:00,
2013-03-03 21:05:00,27.1,12.7,29.69,WNW,290,0.0,0.0,54,0.00,CLR,,0.00,WeatherDisplay:10.37,2013-03-04 02:05:00,
2013-03-03 21:10:00,27.1,12.7,29.69,WNW,290,0.0,0.0,54,0.00,CLR,,0.00,WeatherDisplay:10.37,2013-03-04 02:10:00,
2013-03-03 21:15:00,27.0,12.5,29.69,WNW,290,0.0,0.0,54,0.00,CLR,,0.00,WeatherDisplay:10.37,2013-03-04 02:15:00,
2013-03-03 21:20:00,26.8,12.3,29.70,WNW,290,0.0,0.0,54,0.00,CLR,,0.00,WeatherDisplay:10.37,2013-03-04 02:20:00,
2013-03-03 21:25:00,26.8,12.8,29.69,WNW,290,0.0,0.0,55,0.00,CLR,,0.00,WeatherDisplay:10.37,2013-03-04 02:25:00,
2013-03-03 21:30:00,26.6,12.6,29.69,WNW,290,0.0,0.0,55,0.00,CLR,,0.00,WeatherDisplay:10.37,2013-03-04 02:30:00,
2013-03-03 21:35:00,26.6,12.6,29.70,WNW,290,0.0,0.0,55,0.00,CLR,,0.00,WeatherDisplay:10.37,2013-03-04 02:35:00,
2013-03-03 21:40:00,26.4,12.4,29.70,WNW,290,0.0,0.0,55,0.00,CLR,,0.00,WeatherDisplay:10.37,2013-03-04 02:40:00,
2013-03-03 21:45:00,26.4,12.4,29.70,WNW,290,4.6,4.6,55,0.00,CLR,,0.00,WeatherDisplay:10.37,2013-03-04 02:45:00,
2013-03-03 21:50:00,26.4,12.8,29.70,WNW,290,4.6,4.6,56,0.00,CLR,,0.00,WeatherDisplay:10.37,2013-03-04 02:50:00,
2013-03-03 21:55:00,26.2,12.7,29.70,WNW,300,6.9,6.9,56,0.00,CLR,,0.00,WeatherDisplay:10.37,2013-03-04 02:55:00,
2013-03-03 22:00:00,26.1,12.5,29.70,WNW,300,6.9,6.9,56,0.00,CLR,,0.00,WeatherDisplay:10.37,2013-03-04 03:00:00,
2013-03-03 22:05:00,25.9,12.3,29.70,WNW,300,6.9,6.9,56,0.00,CLR,,0.00,WeatherDisplay:10.37,2013-03-04 03:05:00,
2013-03-03 22:10:00,25.7,12.2,29.71,WNW,300,6.9,6.9,56,0.00,CLR,,0.00,WeatherDisplay:10.37,2013-03-04 03:10:00,
2013-03-03 22:15:00,25.7,12.2,29.71,WNW,290,6.9,6.9,56,0.00,CLR,,0.00,WeatherDisplay:10.37,2013-03-04 03:15:00,
2013-03-03 22:20:00,25.7,12.2,29.71,WNW,290,6.9,6.9,56,0.00,CLR,,0.00,WeatherDisplay:10.37,2013-03-04 03:20:00,
2013-03-03 22:25:00,25.5,12.0,29.71,West,280,4.6,4.6,56,0.00,CLR,,0.00,WeatherDisplay:10.37,2013-03-04 03:25:00,
2013-03-03 22:30:00,25.7,12.2,29.71,West,280,4.6,4.6,56,0.00,CLR,,0.00,WeatherDisplay:10.37,2013-03-04 03:30:00,
2013-03-03 22:35:00,25.5,12.0,29.71,West,280,4.6,4.6,56,0.00,CLR,,0.00,WeatherDisplay:10.37,2013-03-04 03:35:00,
2013-03-03 22:40:00,25.5,12.0,29.71,West,280,4.6,4.6,56,0.00,CLR,,0.00,WeatherDisplay:10.37,2013-03-04 03:40:00,
2013-03-03 22:45:00,25.3,11.8,29.71,WNW,290,9.2,9.2,56,0.00,CLR,,0.00,WeatherDisplay:10.37,2013-03-04 03:45:00,
2013-03-03 22:50:00,25.3,11.8,29.71,WNW,290,9.2,9.2,56,0.00,CLR,,0.00,WeatherDisplay:10.37,2013-03-04 03:50:00,
2013-03-03 22:55:00,25.2,11.6,29.71,WNW,290,9.2,9.2,56,0.00,CLR,,0.00,WeatherDisplay:10.37,2013-03-04 03:55:00,
2013-03-03 23:00:00,25.0,11.5,29.71,WNW,290,9.2,9.2,56,0.00,CLR,,0.00,WeatherDisplay:10.37,2013-03-04 04:00:00,
2013-03-03 23:05:00,25.0,11.5,29.72,WNW,290,0.0,0.0,56,0.00,CLR,,0.00,WeatherDisplay:10.37,2013-03-04 04:05:00,
2013-03-03 23:10:00,24.6,11.1,29.71,WNW,290,0.0,0.0,56,0.00,CLR,,0.00,WeatherDisplay:10.37,2013-03-04 04:10:00,
2013-03-03 23:15:00,24.6,11.1,29.72,WNW,290,0.0,0.0,56,0.00,CLR,,0.00,WeatherDisplay:10.37,2013-03-04 04:15:00,
2013-03-03 23:20:00,24.4,11.0,29.72,WNW,290,0.0,0.0,56,0.00,CLR,,0.00,WeatherDisplay:10.37,2013-03-04 04:20:00,
2013-03-03 23:25:00,24.4,11.4,29.72,WNW,290,0.0,0.0,57,0.00,CLR,,0.00,WeatherDisplay:10.37,2013-03-04 04:25:00,
2013-03-03 23:30:00,24.3,11.2,29.72,WNW,290,0.0,0.0,57,0.00,CLR,,0.00,WeatherDisplay:10.37,2013-03-04 04:30:00,
2013-03-03 23:35:00,24.1,11.0,29.72,WNW,290,0.0,0.0,57,0.00,CLR,,0.00,WeatherDisplay:10.37,2013-03-04 04:35:00,
2013-03-03 23:40:00,24.1,11.0,29.72,WNW,290,0.0,0.0,57,0.00,CLR,,0.00,WeatherDisplay:10.37,2013-03-04 04:40:00,
2013-03-03 23:45:00,24.1,11.0,29.72,WNW,290,0.0,0.0,57,0.00,CLR,,0.00,WeatherDisplay:10.37,2013-03-04 04:45:00,
2013-03-03 23:50:00,24.3,11.2,29.72,WNW,290,0.0,0.0,57,0.00,CLR,,0.00,WeatherDisplay:10.37,2013-03-04 04:50:00,
2013-03-03 23:55:00,24.4,11.4,29.72,WNW,290,0.0,0.0,57,0.00,CLR,,0.00,WeatherDisplay:10.37,2013-03-04 04:55:00,